Weather in Aleshnya

Russia / Tula Oblast     54°14′40″N   37°15′40″E
temp.,
°C
wind,
m/s
gust,
m/s
humid.,
%
clouds,
%
prec.,
mm/h
press.,
hPa
HPBL,
m
12 may, wed
wed1200:00+9se33945 0.0 102652
03:00+7se22910 0.0 102618
06:00+7ese12860 0.0 102639
09:00+12ene4568100 0.1 1025670
12:00+9ne1289100 0.8 1024153
15:00+8w3495100 4.1 1020207
18:00+8sw3597100 4.9 1018235
21:00+6se37974 4.9 1019156
13 may, thu
thu1300:00+5ese35975 0.0 102090
03:00+5e3895100 0.0 1019155
06:00+7e5139397 0.0 1018350
09:00+12ese61282100 0.0 1018659
12:00+15se61071100 0.1 10161242
15:00+10s61092100 3.8 1016433
18:00+12sse368395 1.7 1015576
21:00+9se349378 1.7 101665
14 may, fri
fri1400:00+8sse34955 0.0 101657
03:00+8se339687 0.0 101742
06:00+9ese259895 0.0 1017141
09:00+15se478191 0.0 1016390
12:00+19se6874100 0.0 10141018
15:00+21sse71072100 2.7 10121351
18:00+19sse6117780 6.0 1012387
21:00+15se3892100 10.1 1011141
15 may, sat
sat1500:00+15se3489100 0.8 101169
03:00+14sse51495100 2.9 1011390
06:00+14ese4119092 0.3 1010266
09:00+19se61181100 0.4 1009681
12:00+18sse6987100 0.7 1009707
15:00+22ssw79665 1.1 10091416
18:00+19ssw6107787 0.7 1009728
21:00+14ssw411935 0.8 1010257
16 may, sun
sun1600:00+12sw39962 0.0 1012215
03:00+11sw37965 0.0 1013140
06:00+11sw36931 0.0 1014183
09:00+15wsw45730 0.0 1015571
12:00+18sw356232 0.0 10151431
15:00+20wsw235613 0.0 10151506
18:00+20n0163100 0.0 10151210
21:00+14ne3377100 0.0 101620